| time (UTC) | temp F | wind direction | speed knots | gust knots | rain 1hr in | rain 24hr in | rain mn in | humidity % | barometer mb |
| 20260508053456 | 46 | 228 | 0.9 | 1.7 | 0.00 | 0.00 | 0.00 | 60 | 1016.3 |
| 20260508052954 | 46 | 318 | 2.6 | 2.6 | 0.00 | 0.00 | 0.00 | 59 | 1016.3 |
| 20260508052451 | 46 | 356 | 0.9 | 2.6 | 0.00 | 0.00 | 0.00 | 58 | 1016.3 |
| 20260508051948 | 46 | 240 | 0.0 | 0.9 | 0.00 | 0.00 | 0.00 | 58 | 1016.1 |
| 20260508051443 | 46 | 291 | 0.9 | 0.9 | 0.00 | 0.00 | 0.00 | 57 | 1016.4 |
| 20260508050939 | 46 | 220 | 0.9 | 0.9 | 0.00 | 0.00 | 0.00 | 58 | 1016.2 |
| 20260508050436 | 46 | 245 | 0.0 | 0.9 | 0.00 | 0.00 | 0.00 | 60 | 1016.2 |
| 20260508045932 | 46 | 254 | 0.9 | 2.6 | 0.00 | 0.00 | 0.00 | 58 | 1016.4 |
| 20260508045430 | 47 | 280 | 1.7 | 2.6 | 0.00 | 0.00 | 0.00 | 56 | 1016.3 |
| 20260508044928 | 47 | 246 | 0.0 | 2.6 | 0.00 | 0.00 | 0.00 | 58 | 1016.0 |
| 20260508044425 | 48 | 273 | 0.0 | 2.6 | 0.00 | 0.00 | 0.00 | 53 | 1015.9 |
| 20260508043920 | 48 | 236 | 1.7 | 2.6 | 0.00 | 0.00 | 0.00 | 52 | 1015.9 |
| 20260508043418 | 49 | 265 | 0.0 | 0.9 | 0.00 | 0.00 | 0.00 | 53 | 1016.0 |
| 20260508042914 | 49 | 231 | 1.7 | 1.7 | 0.00 | 0.00 | 0.00 | 51 | 1016.0 |
| 20260508042412 | 48 | 276 | 1.7 | 2.6 | 0.00 | 0.00 | 0.00 | 53 | 1015.9 |
| 20260508041908 | 49 | 51 | 2.6 | 2.6 | 0.00 | 0.00 | 0.00 | 51 | 1015.7 |
| 20260508041405 | 49 | 239 | 1.7 | 1.7 | 0.00 | 0.00 | 0.00 | 54 | 1015.7 |
| 20260508040901 | 49 | 223 | 1.7 | 1.7 | 0.00 | 0.00 | 0.00 | 54 | 1015.5 |
| 20260508040359 | 49 | 356 | 0.9 | 2.6 | 0.00 | 0.00 | 0.00 | 48 | 1015.4 |
| 20260508035857 | 49 | 173 | 0.9 | 0.9 | 0.00 | 0.00 | 0.00 | 52 | 1015.4 |
| 20260508035353 | 50 | 268 | 0.0 | 0.9 | 0.00 | 0.00 | 0.00 | 48 | 1015.3 |
| 20260508034850 | 50 | 112 | 0.9 | 1.7 | 0.00 | 0.00 | 0.00 | 46 | 1015.3 |
| 20260508034347 | 50 | 9 | 1.7 | 1.7 | 0.00 | 0.00 | 0.00 | 48 | 1015.3 |
| 20260508033844 | 49 | 267 | 1.7 | 2.6 | 0.00 | 0.00 | 0.00 | 51 | 1015.2 |
| 20260508033342 | 51 | 262 | 0.0 | 1.7 | 0.00 | 0.00 | 0.00 | 50 | 1015.0 |
| 20260508032839 | 51 | 51 | 3.5 | 5.2 | 0.00 | 0.00 | 0.00 | 45 | 1015.1 |
| 20260508032337 | 50 | 165 | 0.9 | 1.7 | 0.00 | 0.00 | 0.00 | 48 | 1015.2 |
| 20260508031833 | 51 | 47 | 2.6 | 2.6 | 0.00 | 0.00 | 0.00 | 47 | 1015.1 |
| 20260508031330 | 51 | 350 | 1.7 | 6.1 | 0.00 | 0.00 | 0.00 | 47 | 1015.1 |
| 20260508030826 | 51 | 296 | 0.0 | 0.9 | 0.00 | 0.00 | 0.00 | 49 | 1014.8 |
| 20260508030324 | 50 | 263 | 0.9 | 2.6 | 0.00 | 0.00 | 0.00 | 55 | 1014.9 |
| 20260508025820 | 51 | 247 | 0.0 | 1.7 | 0.00 | 0.00 | 0.00 | 52 | 1014.8 |
| 20260508025317 | 52 | 263 | 1.7 | 1.7 | 0.00 | 0.00 | 0.00 | 49 | 1014.7 |
| 20260508024814 | 52 | 219 | 3.5 | 3.5 | 0.00 | 0.00 | 0.00 | 54 | 1014.7 |
| 20260508024310 | 50 | 250 | 2.6 | 6.1 | 0.00 | 0.00 | 0.00 | 51 | 1014.5 |
| 20260508023808 | 50 | 258 | 0.0 | 1.7 | 0.00 | 0.00 | 0.00 | 55 | 1014.5 |
| 20260508023304 | 50 | 213 | 1.7 | 1.7 | 0.00 | 0.00 | 0.00 | 55 | 1014.5 |
| 20260508022800 | 50 | 243 | 0.9 | 1.7 | 0.00 | 0.00 | 0.00 | 56 | 1014.4 |
| 20260508022257 | 50 | 225 | 0.0 | 3.5 | 0.00 | 0.00 | 0.00 | 55 | 1014.2 |
| 20260508021754 | 51 | 221 | 0.0 | 1.7 | 0.00 | 0.00 | 0.00 | 51 | 1014.2 |
| 20260508021249 | 52 | 238 | 0.0 | 2.6 | 0.00 | 0.00 | 0.00 | 51 | 1014.2 |
| 20260508020746 | 51 | 320 | 0.9 | 1.7 | 0.00 | 0.00 | 0.00 | 53 | 1014.4 |
| 20260508020244 | 51 | 345 | 1.7 | 1.7 | 0.00 | 0.00 | 0.00 | 51 | 1014.4 |
| 20260508015741 | 51 | 248 | 1.7 | 2.6 | 0.00 | 0.00 | 0.00 | 55 | 1014.4 |
| 20260508015238 | 52 | 267 | 1.7 | 5.2 | 0.00 | 0.00 | 0.00 | 51 | 1014.1 |
| 20260508014735 | 51 | 154 | 0.9 | 1.7 | 0.00 | 0.00 | 0.00 | 54 | 1014.1 |
| 20260508014232 | 51 | 32 | 1.7 | 2.6 | 0.00 | 0.00 | 0.00 | 52 | 1014.1 |
| 20260508013727 | 52 | 286 | 0.0 | 1.7 | 0.00 | 0.00 | 0.00 | 53 | 1014.1 |
| 20260508013224 | 51 | 18 | 0.9 | 0.9 | 0.00 | 0.00 | 0.00 | 53 | 1013.8 |
| 20260508012722 | 51 | 227 | 0.9 | 1.7 | 0.00 | 0.00 | 0.00 | 57 | 1013.8 |
| 20260508012218 | 52 | 250 | 0.9 | 1.7 | 0.00 | 0.00 | 0.00 | 54 | 1013.6 |
| 20260508011717 | 51 | 243 | 2.6 | 2.6 | 0.00 | 0.00 | 0.00 | 58 | 1013.7 |
| 20260508011214 | 52 | 249 | 0.9 | 1.7 | 0.00 | 0.00 | 0.00 | 55 | 1013.5 |
| 20260508010710 | 53 | 159 | 1.7 | 6.1 | 0.00 | 0.00 | 0.00 | 51 | 1013.4 |
| 20260508010208 | 51 | 64 | 0.9 | 1.7 | 0.00 | 0.00 | 0.00 | 52 | 1013.6 |
| 20260508005706 | 52 | 255 | 0.0 | 0.9 | 0.00 | 0.00 | 0.00 | 54 | 1013.4 |
| 20260508005202 | 53 | 245 | 0.9 | 0.9 | 0.00 | 0.00 | 0.00 | 56 | 1013.4 |
| 20260508004657 | 54 | 207 | 0.9 | 2.6 | 0.00 | 0.00 | 0.00 | 51 | 1013.1 |
| 20260508004154 | 54 | 241 | 1.7 | 1.7 | 0.00 | 0.00 | 0.00 | 53 | 1013.2 |
| 20260508003651 | 55 | 244 | 0.0 | 0.9 | 0.00 | 0.00 | 0.00 | 50 | 1013.0 |
| 20260508003148 | 55 | 10 | 1.7 | 1.7 | 0.00 | 0.00 | 0.00 | 46 | 1013.1 |
| 20260508002644 | 56 | 7 | 0.9 | 3.5 | 0.00 | 0.00 | 0.00 | 44 | 1013.2 |
| 20260508002143 | 56 | 6 | 2.6 | 13.0 | 0.00 | 0.00 | 0.00 | 43 | 1013.1 |
| 20260508001637 | 55 | 335 | 0.9 | 3.5 | 0.00 | 0.00 | 0.00 | 44 | 1013.0 |
| 20260508001133 | 55 | 167 | 0.9 | 2.6 | 0.00 | 0.00 | 0.00 | 51 | 1013.0 |
| 20260508000629 | 55 | 345 | 2.6 | 7.0 | 0.00 | 0.00 | 0.00 | 46 | 1012.8 |
| 20260508000127 | 56 | 41 | 0.0 | 1.7 | 0.00 | 0.00 | 0.00 | 44 | 1012.6 |
| 20260507235624 | 57 | 339 | 1.7 | 3.5 | 0.00 | 0.00 | 0.00 | 43 | 1012.5 |
| 20260507235121 | 57 | 29 | 1.7 | 7.0 | 0.00 | 0.00 | 0.00 | 42 | 1012.6 |
| 20260507234617 | 57 | 265 | 1.7 | 8.7 | 0.00 | 0.00 | 0.00 | 43 | 1012.3 |
| 20260507234114 | 58 | 121 | 0.9 | 3.5 | 0.00 | 0.00 | 0.00 | 42 | 1012.0 |
| 20260507233611 | 57 | 216 | 3.5 | 5.2 | 0.00 | 0.00 | 0.00 | 42 | 1012.3 |
| 20260507233110 | 58 | 91 | 2.6 | 3.5 | 0.00 | 0.00 | 0.00 | 42 | 1011.9 |
| 20260507232605 | 58 | 8 | 1.7 | 2.6 | 0.00 | 0.00 | 0.00 | 44 | 1012.2 |
| 20260507232103 | 58 | 204 | 0.0 | 2.6 | 0.00 | 0.00 | 0.00 | 42 | 1012.3 |
| 20260507231559 | 58 | 55 | 3.5 | 5.2 | 0.00 | 0.00 | 0.00 | 40 | 1012.3 |
| 20260507231057 | 58 | 209 | 2.6 | 3.5 | 0.00 | 0.00 | 0.00 | 44 | 1012.3 |
| 20260507230553 | 58 | 324 | 0.0 | 3.5 | 0.00 | 0.00 | 0.00 | 43 | 1011.9 |
| 20260507230050 | 59 | 23 | 0.9 | 5.2 | 0.00 | 0.00 | 0.00 | 44 | 1011.9 |
| 20260507225544 | 58 | 227 | 3.5 | 5.2 | 0.00 | 0.00 | 0.00 | 42 | 1011.8 |
| 20260507225041 | 59 | 209 | 1.7 | 6.1 | 0.00 | 0.00 | 0.00 | 41 | 1012.0 |
| 20260507224537 | 59 | 92 | 0.0 | 2.6 | 0.00 | 0.00 | 0.00 | 41 | 1011.9 |
| 20260507224034 | 59 | 224 | 2.6 | 6.1 | 0.00 | 0.00 | 0.00 | 44 | 1012.0 |
| 20260507223530 | 59 | 121 | 0.0 | 3.5 | 0.00 | 0.00 | 0.00 | 41 | 1011.8 |
| 20260507223027 | 60 | 50 | 1.7 | 2.6 | 0.00 | 0.00 | 0.00 | 42 | 1011.6 |
| 20260507222524 | 60 | 10 | 2.6 | 5.2 | 0.00 | 0.00 | 0.00 | 41 | 1011.6 |
| 20260507222020 | 60 | 66 | 2.6 | 3.5 | 0.00 | 0.00 | 0.00 | 40 | 1011.8 |
| 20260507221517 | 60 | 200 | 4.3 | 5.2 | 0.00 | 0.00 | 0.00 | 42 | 1011.4 |
| 20260507221014 | 61 | 33 | 4.3 | 5.2 | 0.00 | 0.00 | 0.00 | 41 | 1011.2 |
| 20260507220511 | 61 | 321 | 1.7 | 3.5 | 0.00 | 0.00 | 0.00 | 40 | 1011.3 |
| 20260507220008 | 61 | 52 | 3.5 | 5.2 | 0.00 | 0.00 | 0.00 | 38 | 1011.1 |
| 20260507215504 | 62 | 59 | 3.5 | 7.0 | 0.00 | 0.00 | 0.00 | 39 | 1011.2 |
| 20260507215002 | 62 | 1 | 3.5 | 7.8 | 0.00 | 0.00 | 0.00 | 40 | 1011.1 |
| 20260507214459 | 62 | 350 | 0.9 | 5.2 | 0.00 | 0.00 | 0.00 | 38 | 1011.1 |
| 20260507213954 | 63 | 38 | 2.6 | 3.5 | 0.00 | 0.00 | 0.00 | 38 | 1011.1 |
| 20260507213452 | 64 | 105 | 2.6 | 7.8 | 0.00 | 0.00 | 0.00 | 38 | 1011.0 |
| 20260507212949 | 63 | 32 | 3.5 | 5.2 | 0.00 | 0.00 | 0.00 | 40 | 1010.9 |
| 20260507212444 | 63 | 25 | 0.0 | 1.7 | 0.00 | 0.00 | 0.00 | 40 | 1010.9 |
| 20260507211941 | 64 | 68 | 4.3 | 6.1 | 0.00 | 0.00 | 0.00 | 38 | 1010.7 |
| 20260507211438 | 63 | 192 | 1.7 | 7.8 | 0.00 | 0.00 | 0.00 | 38 | 1010.9 |
| 20260507210935 | 62 | 103 | 1.7 | 6.1 | 0.00 | 0.00 | 0.00 | 40 | 1011.0 |
| 20260507210426 | 63 | 345 | 1.7 | 7.8 | 0.00 | 0.00 | 0.00 | 41 | 1011.0 |
| 20260507205922 | 64 | 162 | 4.3 | 6.1 | 0.00 | 0.00 | 0.00 | 40 | 1010.7 |
| 20260507205420 | 63 | 328 | 3.5 | 6.1 | 0.00 | 0.00 | 0.00 | 40 | 1010.7 |
| 20260507204916 | 64 | 18 | 1.7 | 3.5 | 0.00 | 0.00 | 0.00 | 43 | 1011.1 |
| 20260507204412 | 64 | 33 | 2.6 | 6.1 | 0.00 | 0.00 | 0.00 | 42 | 1010.9 |
| 20260507203910 | 63 | 221 | 0.0 | 1.7 | 0.00 | 0.00 | 0.00 | 40 | 1011.0 |
| 20260507203408 | 63 | 298 | 0.0 | 7.8 | 0.00 | 0.00 | 0.00 | 40 | 1010.9 |
| 20260507202904 | 64 | 72 | 4.3 | 7.0 | 0.00 | 0.00 | 0.00 | 42 | 1010.8 |
| 20260507202400 | 63 | 310 | 2.6 | 8.7 | 0.00 | 0.00 | 0.00 | 42 | 1010.8 |
| 20260507201856 | 64 | 25 | 3.5 | 7.8 | 0.00 | 0.00 | 0.00 | 40 | 1011.0 |
| 20260507201351 | 65 | 54 | 2.6 | 3.5 | 0.00 | 0.00 | 0.00 | 39 | 1011.0 |
| 20260507200848 | 63 | 178 | 3.5 | 6.1 | 0.00 | 0.00 | 0.00 | 40 | 1011.1 |
| 20260507200344 | 64 | 0 | 2.6 | 6.1 | 0.00 | 0.00 | 0.00 | 40 | 1011.0 |
| 20260507195840 | 65 | 162 | 0.9 | 5.2 | 0.00 | 0.00 | 0.00 | 40 | 1011.0 |
| 20260507195337 | 64 | 18 | 5.2 | 8.7 | 0.00 | 0.00 | 0.00 | 44 | 1010.9 |
| 20260507194835 | 64 | 0 | 6.1 | 7.8 | 0.00 | 0.00 | 0.00 | 40 | 1011.1 |
| 20260507194331 | 64 | 65 | 3.5 | 7.0 | 0.00 | 0.00 | 0.00 | 41 | 1011.0 |
| 20260507193828 | 63 | 347 | 6.1 | 8.7 | 0.00 | 0.00 | 0.00 | 42 | 1010.9 |
| 20260507193325 | 64 | 29 | 6.1 | 7.8 | 0.00 | 0.00 | 0.00 | 41 | 1011.1 |
| 20260507192821 | 64 | 38 | 6.1 | 8.7 | 0.00 | 0.00 | 0.00 | 40 | 1011.2 |
| 20260507192318 | 64 | 348 | 2.6 | 2.6 | 0.00 | 0.00 | 0.00 | 44 | 1011.1 |
| 20260507191814 | 64 | 226 | 0.0 | 1.7 | 0.00 | 0.00 | 0.00 | 43 | 1011.1 |
| 20260507191310 | 64 | 23 | 1.7 | 3.5 | 0.00 | 0.00 | 0.00 | 45 | 1011.2 |
| 20260507190808 | 64 | 211 | 5.2 | 9.6 | 0.00 | 0.00 | 0.00 | 42 | 1011.2 |
| 20260507190306 | 64 | 154 | 3.5 | 6.1 | 0.00 | 0.00 | 0.00 | 45 | 1011.1 |
| 20260507185804 | 63 | 348 | 1.7 | 7.0 | 0.00 | 0.00 | 0.00 | 47 | 1011.3 |
| 20260507185300 | 65 | 22 | 1.7 | 3.5 | 0.00 | 0.00 | 0.00 | 41 | 1011.3 |
| 20260507184758 | 63 | 55 | 3.5 | 5.2 | 0.00 | 0.00 | 0.00 | 43 | 1011.2 |
| 20260507184256 | 63 | 109 | 3.5 | 7.8 | 0.00 | 0.00 | 0.00 | 43 | 1011.1 |
| 20260507183752 | 62 | 161 | 2.6 | 5.2 | 0.00 | 0.00 | 0.00 | 43 | 1011.4 |
| 20260507183249 | 64 | 162 | 4.3 | 6.1 | 0.00 | 0.00 | 0.00 | 44 | 1011.3 |
| 20260507182747 | 64 | 174 | 1.7 | 5.2 | 0.00 | 0.00 | 0.00 | 43 | 1011.3 |
| 20260507182242 | 63 | 75 | 1.7 | 3.5 | 0.00 | 0.00 | 0.00 | 47 | 1011.2 |
| 20260507181739 | 64 | 99 | 0.9 | 2.6 | 0.00 | 0.00 | 0.00 | 47 | 1011.4 |
| 20260507181235 | 64 | 20 | 1.7 | 7.0 | 0.00 | 0.00 | 0.00 | 46 | 1011.4 |
| 20260507180732 | 63 | 70 | 7.0 | 7.8 | 0.00 | 0.00 | 0.00 | 46 | 1011.1 |
| 20260507180229 | 63 | 43 | 1.7 | 5.2 | 0.00 | 0.00 | 0.00 | 48 | 1011.5 |
| 20260507175724 | 63 | 180 | 3.5 | 8.7 | 0.00 | 0.00 | 0.00 | 45 | 1011.4 |
| 20260507175221 | 63 | 18 | 2.6 | 3.5 | 0.00 | 0.00 | 0.00 | 49 | 1011.5 |
| 20260507174719 | 64 | 355 | 1.7 | 3.5 | 0.00 | 0.00 | 0.00 | 47 | 1011.5 |
| 20260507174217 | 63 | 75 | 0.9 | 7.8 | 0.00 | 0.00 | 0.00 | 52 | 1011.7 |
| 20260507173715 | 63 | 9 | 2.6 | 7.0 | 0.00 | 0.00 | 0.00 | 52 | 1011.9 |
| 20260507173211 | 62 | 11 | 0.0 | 6.1 | 0.00 | 0.00 | 0.00 | 48 | 1012.0 |
| 20260507172708 | 62 | 87 | 3.5 | 7.0 | 0.00 | 0.00 | 0.00 | 48 | 1012.2 |
| 20260507172204 | 62 | 46 | 1.7 | 2.6 | 0.00 | 0.00 | 0.00 | 47 | 1012.0 |
| 20260507171704 | 61 | 59 | 6.1 | 12.2 | 0.00 | 0.00 | 0.00 | 51 | 1012.0 |
| 20260507171202 | 62 | 74 | 3.5 | 3.5 | 0.00 | 0.00 | 0.00 | 50 | 1012.4 |
| 20260507170659 | 62 | 13 | 2.6 | 9.6 | 0.00 | 0.00 | 0.00 | 52 | 1012.3 |
| 20260507170156 | 61 | 54 | 2.6 | 7.0 | 0.00 | 0.00 | 0.00 | 50 | 1012.5 |
| 20260507165651 | 61 | 11 | 0.0 | 8.7 | 0.00 | 0.00 | 0.00 | 51 | 1012.5 |
| 20260507165148 | 60 | 76 | 6.1 | 8.7 | 0.00 | 0.00 | 0.00 | 53 | 1012.5 |
| 20260507164644 | 60 | 18 | 2.6 | 5.2 | 0.00 | 0.00 | 0.00 | 53 | 1012.4 |
| 20260507164141 | 60 | 59 | 4.3 | 7.0 | 0.00 | 0.00 | 0.00 | 53 | 1012.7 |
| 20260507163638 | 60 | 53 | 5.2 | 7.8 | 0.00 | 0.00 | 0.00 | 53 | 1012.7 |
| 20260507163136 | 60 | 245 | 0.0 | 5.2 | 0.00 | 0.00 | 0.00 | 57 | 1012.8 |
| 20260507162632 | 59 | 109 | 3.5 | 7.0 | 0.00 | 0.00 | 0.00 | 54 | 1013.0 |
| 20260507162128 | 59 | 17 | 3.5 | 5.2 | 0.00 | 0.00 | 0.00 | 55 | 1012.9 |
| 20260507161624 | 59 | 30 | 1.7 | 7.0 | 0.00 | 0.00 | 0.00 | 55 | 1013.1 |
| 20260507161121 | 60 | 26 | 3.5 | 7.0 | 0.00 | 0.00 | 0.00 | 54 | 1013.1 |
| 20260507160618 | 60 | 46 | 2.6 | 5.2 | 0.00 | 0.00 | 0.00 | 53 | 1013.1 |
| 20260507160114 | 60 | 55 | 0.9 | 5.2 | 0.00 | 0.00 | 0.00 | 54 | 1013.1 |
| 20260507155609 | 59 | 57 | 0.9 | 5.2 | 0.00 | 0.00 | 0.00 | 53 | 1013.1 |
| 20260507155107 | 58 | 33 | 1.7 | 5.2 | 0.00 | 0.00 | 0.00 | 55 | 1013.2 |
| 20260507154603 | 59 | 325 | 3.5 | 6.1 | 0.00 | 0.00 | 0.00 | 57 | 1013.4 |
| 20260507154100 | 59 | 331 | 5.2 | 7.0 | 0.00 | 0.00 | 0.00 | 57 | 1013.6 |
| 20260507153557 | 58 | 104 | 3.5 | 5.2 | 0.00 | 0.00 | 0.00 | 56 | 1013.6 |
| 20260507153054 | 58 | 31 | 1.7 | 7.8 | 0.00 | 0.00 | 0.00 | 57 | 1013.5 |
| 20260507152550 | 57 | 46 | 2.6 | 3.5 | 0.00 | 0.00 | 0.00 | 59 | 1013.7 |
| 20260507152046 | 57 | 60 | 1.7 | 7.0 | 0.00 | 0.00 | 0.00 | 56 | 1013.9 |
| 20260507151542 | 57 | 41 | 0.0 | 7.0 | 0.00 | 0.00 | 0.00 | 61 | 1013.9 |
| 20260507151039 | 58 | 34 | 3.5 | 5.2 | 0.00 | 0.00 | 0.00 | 61 | 1013.9 |
| 20260507150536 | 56 | 2 | 1.7 | 2.6 | 0.00 | 0.00 | 0.00 | 62 | 1014.1 |
| 20260507150033 | 56 | 4 | 1.7 | 3.5 | 0.00 | 0.00 | 0.00 | 64 | 1013.9 |
| 20260507145528 | 56 | 31 | 1.7 | 5.2 | 0.00 | 0.00 | 0.00 | 62 | 1014.1 |
| 20260507145026 | 56 | 340 | 7.0 | 8.7 | 0.00 | 0.00 | 0.00 | 63 | 1014.2 |
| 20260507144522 | 56 | 260 | 0.9 | 7.8 | 0.00 | 0.00 | 0.00 | 61 | 1014.4 |
| 20260507144020 | 56 | 305 | 0.0 | 1.7 | 0.00 | 0.00 | 0.00 | 61 | 1014.4 |
| 20260507143517 | 55 | 47 | 3.5 | 5.2 | 0.00 | 0.00 | 0.00 | 64 | 1014.1 |
| 20260507143014 | 56 | 354 | 1.7 | 6.1 | 0.00 | 0.00 | 0.00 | 62 | 1014.4 |
| 20260507142509 | 55 | 14 | 1.7 | 2.6 | 0.00 | 0.00 | 0.00 | 69 | 1014.5 |
| 20260507142007 | 53 | 24 | 1.7 | 2.6 | 0.00 | 0.00 | 0.00 | 75 | 1014.7 |
| 20260507141502 | 55 | 72 | 2.6 | 2.6 | 0.00 | 0.00 | 0.00 | 75 | 1014.8 |
| 20260507140959 | 53 | 40 | 0.9 | 0.9 | 0.00 | 0.00 | 0.00 | 77 | 1014.8 |
| 20260507140456 | 52 | 345 | 0.9 | 1.7 | 0.00 | 0.00 | 0.00 | 80 | 1014.8 |
| 20260507135953 | 52 | 355 | 0.0 | 1.7 | 0.00 | 0.00 | 0.00 | 79 | 1014.8 |
| 20260507135450 | 51 | 66 | 1.7 | 2.6 | 0.00 | 0.00 | 0.00 | 81 | 1014.9 |
| 20260507134947 | 51 | 25 | 1.7 | 3.5 | 0.00 | 0.00 | 0.00 | 82 | 1015.0 |
| 20260507134444 | 51 | 3 | 1.7 | 1.7 | 0.00 | 0.00 | 0.00 | 83 | 1015.0 |
| 20260507133940 | 51 | 6 | 1.7 | 2.6 | 0.00 | 0.00 | 0.00 | 83 | 1015.1 |
| 20260507133436 | 51 | 359 | 0.0 | 1.7 | 0.00 | 0.00 | 0.00 | 84 | 1015.2 |
| 20260507132935 | 51 | 5 | 0.9 | 1.7 | 0.00 | 0.00 | 0.00 | 85 | 1015.2 |
| 20260507132431 | 50 | 15 | 1.7 | 1.7 | 0.00 | 0.00 | 0.00 | 85 | 1015.3 |
| 20260507131927 | 50 | 351 | 1.7 | 2.6 | 0.00 | 0.00 | 0.00 | 85 | 1015.3 |
| 20260507131424 | 50 | 350 | 0.0 | 0.9 | 0.00 | 0.00 | 0.00 | 86 | 1015.3 |
| 20260507130921 | 50 | 336 | 0.9 | 1.7 | 0.00 | 0.00 | 0.00 | 87 | 1015.3 |
| 20260507130418 | 50 | 326 | 1.7 | 1.7 | 0.00 | 0.00 | 0.00 | 86 | 1015.4 |
| 20260507125917 | 50 | 2 | 0.0 | 1.7 | 0.00 | 0.00 | 0.00 | 86 | 1015.4 |
| 20260507125415 | 50 | 358 | 0.9 | 1.7 | 0.00 | 0.00 | 0.00 | 86 | 1015.4 |
| 20260507124912 | 50 | 14 | 0.9 | 0.9 | 0.00 | 0.00 | 0.00 | 86 | 1015.4 |
| 20260507124408 | 50 | 23 | 1.7 | 2.6 | 0.00 | 0.00 | 0.00 | 85 | 1015.3 |
| 20260507123906 | 50 | 311 | 0.0 | 0.9 | 0.00 | 0.00 | 0.00 | 86 | 1015.2 |
| 20260507123403 | 50 | 303 | 0.0 | 0.9 | 0.00 | 0.00 | 0.00 | 86 | 1015.2 |
| 20260507122859 | 49 | 349 | 0.9 | 2.6 | 0.00 | 0.00 | 0.00 | 86 | 1015.1 |
| 20260507122355 | 50 | 319 | 1.7 | 2.6 | 0.00 | 0.00 | 0.00 | 86 | 1015.2 |
| 20260507121851 | 50 | 321 | 1.7 | 3.5 | 0.00 | 0.00 | 0.00 | 86 | 1015.2 |
| 20260507121347 | 50 | 325 | 0.9 | 3.5 | 0.00 | 0.00 | 0.00 | 85 | 1015.1 |
| 20260507120844 | 50 | 330 | 0.9 | 1.7 | 0.00 | 0.00 | 0.00 | 85 | 1015.1 |
| 20260507120340 | 50 | 341 | 0.0 | 2.6 | 0.00 | 0.00 | 0.00 | 85 | 1014.8 |
| 20260507115836 | 51 | 332 | 3.5 | 5.2 | 0.00 | 0.00 | 0.00 | 84 | 1014.9 |
| 20260507115326 | 51 | 320 | 2.6 | 5.2 | 0.00 | 0.00 | 0.00 | 83 | 1014.8 |
| 20260507114822 | 52 | 286 | 0.9 | 1.7 | 0.00 | 0.00 | 0.00 | 79 | 1014.7 |
| 20260507114319 | 51 | 255 | 1.7 | 1.7 | 0.00 | 0.00 | 0.00 | 79 | 1014.8 |
| 20260507113817 | 51 | 266 | 0.9 | 1.7 | 0.00 | 0.00 | 0.00 | 80 | 1014.6 |
| 20260507113313 | 51 | 357 | 0.0 | 0.9 | 0.00 | 0.00 | 0.00 | 80 | 1014.6 |
| 20260507112811 | 51 | 333 | 0.0 | 0.0 | 0.00 | 0.00 | 0.00 | 81 | 1014.5 |
| 20260507112308 | 51 | 335 | 0.0 | 0.9 | 0.00 | 0.00 | 0.00 | 85 | 1014.5 |
| 20260507111806 | 51 | 348 | 0.0 | 0.0 | 0.00 | 0.00 | 0.00 | 84 | 1014.4 |
| 20260507111302 | 51 | 254 | 0.9 | 0.9 | 0.00 | 0.00 | 0.00 | 81 | 1014.2 |
| 20260507110758 | 51 | 214 | 0.0 | 0.0 | 0.00 | 0.00 | 0.00 | 83 | 1014.5 |
| 20260507110255 | 51 | 228 | 0.9 | 1.7 | 0.00 | 0.00 | 0.00 | 83 | 1014.5 |
| 20260507105752 | 51 | 220 | 0.0 | 0.0 | 0.00 | 0.00 | 0.00 | 81 | 1014.2 |
| 20260507105248 | 51 | 220 | 0.0 | 0.0 | 0.00 | 0.00 | 0.00 | 83 | 1014.0 |
| 20260507104745 | 51 | 220 | 0.0 | 0.0 | 0.00 | 0.00 | 0.00 | 81 | 1014.0 |
| 20260507104241 | 51 | 220 | 0.0 | 0.0 | 0.00 | 0.00 | 0.00 | 83 | 1013.9 |
| 20260507103737 | 51 | 211 | 0.0 | 0.0 | 0.00 | 0.00 | 0.00 | 81 | 1013.8 |
| 20260507103234 | 51 | 202 | 0.0 | 0.0 | 0.00 | 0.00 | 0.00 | 82 | 1014.1 |
| 20260507102730 | 51 | 205 | 0.0 | 0.9 | 0.00 | 0.00 | 0.00 | 82 | 1014.1 |
| 20260507102227 | 50 | 280 | 0.0 | 0.9 | 0.00 | 0.00 | 0.00 | 81 | 1014.0 |
| 20260507101723 | 50 | 289 | 0.0 | 0.0 | 0.00 | 0.00 | 0.00 | 83 | 1014.0 |
| 20260507101218 | 50 | 288 | 0.0 | 0.0 | 0.00 | 0.00 | 0.00 | 84 | 1013.8 |
| 20260507100716 | 50 | 288 | 0.0 | 0.9 | 0.00 | 0.00 | 0.00 | 84 | 1013.9 |
| 20260507100214 | 50 | 288 | 0.0 | 0.9 | 0.00 | 0.00 | 0.00 | 84 | 1013.8 |
| 20260507095712 | 50 | 288 | 0.0 | 0.0 | 0.00 | 0.00 | 0.00 | 85 | 1013.9 |
| 20260507095208 | 50 | 289 | 0.0 | 0.0 | 0.00 | 0.00 | 0.00 | 83 | 1013.9 |
| 20260507094705 | 50 | 289 | 0.0 | 0.0 | 0.00 | 0.00 | 0.00 | 84 | 1013.7 |
| 20260507094202 | 50 | 289 | 0.0 | 0.9 | 0.00 | 0.00 | 0.00 | 83 | 1013.7 |
| 20260507093659 | 50 | 218 | 0.0 | 0.0 | 0.00 | 0.00 | 0.00 | 88 | 1013.8 |
| 20260507093158 | 50 | 218 | 0.0 | 0.0 | 0.00 | 0.00 | 0.00 | 89 | 1013.7 |
| 20260507092654 | 50 | 218 | 0.0 | 0.0 | 0.00 | 0.00 | 0.00 | 90 | 1013.7 |
| 20260507092151 | 50 | 218 | 0.0 | 0.0 | 0.00 | 0.00 | 0.00 | 89 | 1013.8 |
| 20260507091647 | 50 | 218 | 0.0 | 0.0 | 0.00 | 0.00 | 0.00 | 89 | 1014.1 |
| 20260507091144 | 50 | 218 | 0.0 | 0.0 | 0.00 | 0.00 | 0.00 | 88 | 1014.0 |
| 20260507090639 | 50 | 290 | 0.0 | 0.0 | 0.00 | 0.00 | 0.00 | 88 | 1013.9 |
| 20260507090137 | 50 | 219 | 0.0 | 0.9 | 0.00 | 0.00 | 0.00 | 88 | 1013.9 |
| 20260507085633 | 50 | 283 | 0.9 | 0.9 | 0.00 | 0.00 | 0.00 | 89 | 1013.9 |
| 20260507085130 | 50 | 218 | 0.0 | 0.0 | 0.00 | 0.00 | 0.00 | 89 | 1013.9 |
| 20260507084627 | 50 | 292 | 0.9 | 0.9 | 0.00 | 0.00 | 0.00 | 89 | 1013.7 |
| 20260507084124 | 50 | 309 | 0.0 | 0.0 | 0.00 | 0.00 | 0.00 | 88 | 1013.7 |
| 20260507083620 | 50 | 308 | 0.0 | 0.9 | 0.00 | 0.00 | 0.00 | 88 | 1013.6 |
| 20260507083117 | 51 | 304 | 0.0 | 0.0 | 0.00 | 0.00 | 0.00 | 87 | 1013.5 |
| 20260507082613 | 51 | 350 | 0.9 | 0.9 | 0.00 | 0.00 | 0.00 | 85 | 1013.9 |
| 20260507082110 | 50 | 350 | 0.0 | 0.0 | 0.00 | 0.00 | 0.00 | 84 | 1014.0 |
| 20260507081606 | 51 | 350 | 0.0 | 0.9 | 0.00 | 0.00 | 0.00 | 85 | 1013.8 |
| 20260507081103 | 50 | 357 | 0.0 | 0.9 | 0.00 | 0.00 | 0.00 | 83 | 1013.9 |
| 20260507080559 | 50 | 359 | 0.0 | 0.0 | 0.00 | 0.00 | 0.00 | 89 | 1014.0 |
| 20260507080056 | 50 | 359 | 0.0 | 0.0 | 0.00 | 0.00 | 0.00 | 90 | 1013.9 |
| 20260507075550 | 50 | 359 | 0.0 | 0.0 | 0.00 | 0.00 | 0.00 | 90 | 1013.8 |
| 20260507075047 | 50 | 359 | 0.0 | 0.0 | 0.00 | 0.00 | 0.00 | 90 | 1014.2 |
| 20260507074544 | 51 | 351 | 0.0 | 1.7 | 0.00 | 0.00 | 0.00 | 90 | 1014.2 |
| 20260507074043 | 51 | 44 | 0.9 | 0.9 | 0.00 | 0.00 | 0.00 | 90 | 1014.0 |
| 20260507073538 | 50 | 359 | 0.0 | 0.0 | 0.00 | 0.00 | 0.00 | 91 | 1013.9 |
| 20260507073035 | 50 | 358 | 0.0 | 0.0 | 0.00 | 0.00 | 0.00 | 90 | 1013.6 |
| 20260507072533 | 50 | 358 | 0.0 | 0.0 | 0.00 | 0.00 | 0.00 | 91 | 1013.6 |
| 20260507072030 | 50 | 359 | 1.7 | 1.7 | 0.00 | 0.00 | 0.00 | 90 | 1013.7 |
| 20260507071527 | 51 | 357 | 0.0 | 0.9 | 0.00 | 0.00 | 0.00 | 91 | 1013.6 |
| 20260507071024 | 51 | 353 | 0.0 | 1.7 | 0.00 | 0.00 | 0.00 | 91 | 1013.6 |
| 20260507070521 | 51 | 353 | 0.9 | 0.9 | 0.00 | 0.00 | 0.00 | 91 | 1013.7 |
| 20260507070018 | 51 | 345 | 0.9 | 1.7 | 0.00 | 0.00 | 0.00 | 91 | 1013.7 |
| 20260507065514 | 51 | 351 | 0.9 | 1.7 | 0.00 | 0.00 | 0.00 | 91 | 1013.8 |
| 20260507065011 | 51 | 341 | 2.6 | 2.6 | 0.00 | 0.00 | 0.00 | 91 | 1013.9 |
| 20260507064509 | 51 | 357 | 1.7 | 2.6 | 0.00 | 0.00 | 0.00 | 91 | 1013.7 |
| 20260507064007 | 51 | 1 | 1.7 | 2.6 | 0.00 | 0.00 | 0.00 | 91 | 1013.7 |
| 20260507063504 | 51 | 335 | 1.7 | 2.6 | 0.00 | 0.00 | 0.00 | 91 | 1013.6 |
| 20260507063001 | 51 | 331 | 0.9 | 1.7 | 0.00 | 0.00 | 0.00 | 91 | 1013.6 |
| 20260507062458 | 52 | 355 | 1.7 | 2.6 | 0.00 | 0.00 | 0.00 | 90 | 1014.0 |
| 20260507061955 | 52 | 1 | 0.9 | 2.6 | 0.00 | 0.00 | 0.00 | 90 | 1013.9 |
| 20260507061453 | 52 | 306 | 1.7 | 2.6 | 0.00 | 0.00 | 0.00 | 90 | 1014.0 |
| 20260507060951 | 52 | 319 | 1.7 | 1.7 | 0.00 | 0.00 | 0.00 | 89 | 1013.9 |
| 20260507060448 | 52 | 0 | 1.7 | 3.5 | 0.00 | 0.00 | 0.00 | 89 | 1013.8 |
| 20260507055944 | 53 | 341 | 2.6 | 3.5 | 0.00 | 0.00 | 0.00 | 89 | 1014.1 |
| 20260507055440 | 53 | 14 | 3.5 | 5.2 | 0.00 | 0.00 | 0.00 | 88 | 1013.8 |
| 20260507054937 | 53 | 344 | 1.7 | 2.6 | 0.00 | 0.00 | 0.00 | 88 | 1013.9 |
| 20260507054433 | 53 | 324 | 0.9 | 3.5 | 0.00 | 0.00 | 0.00 | 87 | 1014.1 |